Location: Newark
(33.6439°N, 114.9881°W)
Time: 21:16:06
(UTC+00:00)

Hubble Space Telescope - Visible Passes

Search period start: 24 June 2019 00:00
Search period end: 04 July 2019 00:00
Orbit: 536 x 540 km, 28.5° (Epoch: 24 June)

Date Brightness Start Highest point End Pass type
(mag) Time Alt. Az. Time Alt. Az. Time Alt. Az.
24 Jun 2.7 03:57:36 10° S 03:59:09 13° SSE 03:59:09 13° SSE visible
25 Jun 2.4 03:46:22 10° SSW 03:48:58 16° SSE 03:50:10 15° SE visible
26 Jun 2.2 03:35:21 10° SSW 03:38:21 19° SSE 03:40:54 12° ESE visible
26 Jun 2.9 05:15:18 10° WSW 05:16:17 16° SW 05:16:17 16° SW visible
27 Jun 2.1 03:24:27 10° SW 03:27:45 23° SSE 03:31:02 10° ESE visible
27 Jun 2.2 05:04:41 10° WSW 05:06:47 25° SW 05:06:47 25° SW visible
28 Jun 1.6 04:54:06 10° WSW 04:57:06 35° SSW 04:57:06 35° SSW visible
29 Jun 1.3 04:43:32 10° WSW 04:47:15 40° S 04:47:15 40° S visible
30 Jun 1.3 04:32:58 10° WSW 04:36:52 39° S 04:37:18 38° SSE visible
01 Jul 1.4 04:22:26 10° WSW 04:26:17 38° S 04:27:16 32° SSE visible
02 Jul 1.5 04:11:54 10° WSW 04:15:43 35° S 04:17:10 27° SSE visible
03 Jul 1.7 04:01:25 10° WSW 04:05:08 32° S 04:07:04 21° SE visible
